Location: Eaton Estates
(41.3089°N, 82.0057°W)
Time: 23:33:45
(UTC+00:00)

Oscar 11 - Visible Passes

Search period start: 30 March 2023 00:00
Search period end: 09 April 2023 00:00
Orbit: 608 x 622 km, 97.7° (Epoch: 29 March)

Date Brightness Start Highest point End Pass type
(mag) Time Alt. Az. Time Alt. Az. Time Alt. Az.
30 Mar 9.9 08:49:48 10° NE 08:52:18 15° E 08:54:48 10° SE visible
30 Mar 7.4 10:24:28 10° N 10:28:34 45° WNW 10:32:39 10° SW visible
31 Mar 9.4 09:04:44 10° NE 09:08:07 22° E 09:11:28 10° SE visible
31 Mar 7.9 10:40:23 10° N 10:44:09 31° WNW 10:47:55 10° SW visible
01 Apr 8.7 09:20:00 10° NNE 09:23:52 33° E 09:27:44 10° SSE visible
02 Apr 7.9 09:35:26 10° NNE 09:39:36 49° E 09:43:45 10° S visible
03 Apr 7.2 09:50:59 10° NNE 09:55:17 76° ESE 09:59:34 10° S visible
04 Apr 7.0 10:06:39 10° N 10:10:56 72° WNW 10:15:11 10° SSW visible
05 Apr 9.9 08:47:50 10° ENE 08:50:16 15° E 08:52:40 10° SE visible
05 Apr 7.3 10:22:24 10° N 10:26:32 47° WNW 10:30:38 10° SSW visible
06 Apr 9.4 09:02:43 10° NE 09:06:02 22° E 09:09:20 10° SE visible
07 Apr 8.8 09:17:54 10° NNE 09:21:46 32° E 09:25:36 10° SSE visible
08 Apr 8.0 09:33:17 10° NNE 09:37:27 47° E 09:41:35 10° S visible
